Regional Weather Roundup
Issued by NWS Green Bay, WI

Home | Current Version | Previous Version | Text Only | Print | Product List | Glossary On
Versions: 1 2 3 4 5 6 7 8 9 10 11 12 13 14 15 16 17 18 19 20 21 22 23 24 25 26 27 28 29 30 31 32 33 34 35 36 37 38 39 40 41 42 43 44 45 46 47 48 49 50
000
ASUS43 KGRB 201701
RWRGRB

NORTH-CENTRAL AND NORTHEAST WISCONSIN REGIONAL WEATHER ROUNDUP
NATIONAL WEATHER SERVICE GREEN BAY WI
1200 PM CDT FRI OCT 20 2017

WIZ005-009-010>012-018-019-201800-
NORTH CENTRAL WISCONSIN

CITY           SKY/WX    TMP DP  RH WIND       PRES   REMARKS
IRONWOOD       SUNNY     72  49  44 VRB7G16   29.88F
MANITOWISH WTR NOT AVBL
ARBOR VITAE    NOT AVBL
EAGLE RIVER    NOT AVBL
LAND O LAKES   NOT AVBL
RHINELANDER    SUNNY     68  49  50 SW12      29.98F
PHILLIPS       NOT AVBL
ANTIGO         NOT AVBL
TOMAHAWK       NOT AVBL
MERRILL        NOT AVBL
$$

WIZ013-073-201800-
NORTHEAST WISCONSIN

CITY           SKY/WX    TMP DP  RH WIND       PRES   REMARKS
IRON MOUNTAIN  SUNNY     69  46  43 S8        29.98F
MARINETTE      SUNNY     69  52  54 SW5       30.02F
$$

WIZ017-030-035>037-045-201800-
CENTRAL WISCONSIN

CITY           SKY/WX    TMP DP  RH WIND       PRES   REMARKS
MEDFORD        NOT AVBL
WAUSAU         SUNNY     68  50  52 S9        29.99F
MOSINEE        NOT AVBL
MARSHFIELD     SUNNY     70  50  49 SW12      29.99F
WISC RAPIDS    SUNNY     68  52  56 SW14      30.03F
STEVENS POINT  NOT AVBL
WAUPACA        NOT AVBL
SHAWANO        NOT AVBL
CLINTONVILLE   NOT AVBL
WAUTOMA        SUNNY     70  52  52 S7        30.05F
$$

WIZ038-039-048-051-201800-
FOX VALLEY

CITY           SKY/WX    TMP DP  RH WIND       PRES   REMARKS
NWS GREEN BAY  SUNNY     68  53  58 SW14      30.05S
APPLETON       MOSUNNY   70  48  46 SW13G18   30.04F
OSHKOSH        SUNNY     69  53  56 SW13      30.05F
FOND DU LAC    SUNNY     71  50  47 SW10      30.07F
$$

WIZ022-050-052-201800-
EAST CENTRAL WISCONSIN

CITY           SKY/WX    TMP DP  RH WIND       PRES   REMARKS
EPHRAIM        NOT AVBL
WASHINGTON ISL NOT AVBL
STURGEON BAY   SUNNY     73  54  51 S9          N/A
MANITOWOC      SUNNY     69  54  58 S12       30.06F
SHEBOYGAN      SUNNY     73  54  51 SW16      30.07F
$$

LMZ563-521-522-541>543-201800-
LAKESHORE

STATION/POSITION TIME  TEMP    WIND        PRES    VSBY  WAVE
                       AIR SEA DIR/SP/G                  HT/PER
                 (UTC) (F)     (DEG/KT/KT) (MB)    (MI)  (FT/S)
SHEBOYGAN LKSHOR 1600   56     170/ 16/ 18 1018.7F
NORTHPORT PIER   1630   60     150/  7/  9 1016.9S
N MID LAKE BUOY  1550   60 58  190/ 16/ 19 1018.1F         4/ 6
SISTER BAY LKSHO 1604   71     240/ 12/ 14   N/A
$$




USA.gov is the U.S. government's official web portal to all federal, state and local government web resources and services.